Location: Newark
(47.5833°N, 8.1500°E)
Time: 12:33:20
(UTC+00:00)

Transit 2A - Pass Details

Date: 05 November 2020
Orbit: 595 x 964 km, 66.7° (Epoch: 27 November)

Event Time Altitude Azimuth Distance (km) Brightness Sun altitude
Rises 07:28:50 0° 323° (NW) 3,431 8.7 9.5°
Reaches altitude 10° 07:31:27 10° 320° (NW) 2,434 8.0 9.9°
Maximum altitude 07:36:56 62° 242° (WSW) 857 6.3 10.6°
Drops below altitude 10° 07:41:49 10° 162° (SSE) 2,172 9.5 11.3°
Sets 07:44:03 0° 159° (SSE) 3,034 10.3 11.5°
